Location: Bidwell Hollow
(37.7387°N, 90.1707°W)
Time: 22:34:35
(UTC+00:00)

Transit 2A - Pass Details

Date: 12 May 2026
Orbit: 595 x 949 km, 66.7° (Epoch: 6 June)

Event Time Altitude Azimuth Distance (km) Brightness Sun altitude
Rises 07:29:50 0° 333° (NNW) 3,148 9.7 -30.0°
Reaches altitude 10° 07:32:18 10° 334° (NNW) 2,168 8.8 -29.8°
Enters shadow 07:35:25 38° 340° (NNW) 1,014 6.8 -29.5°
